When you browse on this site, cookies collect data to enhance your experience and personalize the content and advertising you see.
Visit our Privacy Policy to learn more. By continuing to use the site, you agree to this use of cookies and data.

Hourly Weather Banja Luka

Today, 11 August, Tuesday

Time Temperature Precipitation Wind Pressure Humidity
00:00 +20°C° 0 mm 1 mps 715 mmHg 87%
01:00 +19°C° 0 mm 1 mps 716 mmHg 88%
02:00 +19°C° 0 mm 1 mps 715 mmHg 88%
03:00 +19°C° 0 mm 1 mps 715 mmHg 88%
04:00 +19°C° 0 mm 1 mps 715 mmHg 88%
05:00 +20°C° 0 mm 1 mps 715 mmHg 85%
06:00 +22°C° 0 mm 1 mps 716 mmHg 82%
07:00 +23°C° 0 mm 1 mps 716 mmHg 78%
08:00 +26°C° 0 mm 1 mps 717 mmHg 69%
09:00 +28°C° 0 mm 1 mps 717 mmHg 60%
10:00 +31°C° 0 mm 1 mps 717 mmHg 50%
11:00 +31°C° 0.1 mm 1 mps 717 mmHg 48%
12:00 +31°C° 0.1 mm 1 mps 717 mmHg 45%
13:00 +32°C° 0.1 mm 1 mps 717 mmHg 43%
14:00 +31°C° 0.2 mm 1 mps 717 mmHg 49%
15:00 +30°C° 0.2 mm 1 mps 716 mmHg 54%
16:00 +28°C° 0.2 mm 1 mps 716 mmHg 60%
17:00 +26°C° 1.5 mm 2 mps 716 mmHg 69%
18:00 +24°C° 1.5 mm 2 mps 716 mmHg 79%
19:00 +21°C° 1.5 mm 2 mps 715 mmHg 89%
20:00 +21°C° 0.1 mm 2 mps 716 mmHg 89%
21:00 +21°C° 0.1 mm 1 mps 716 mmHg 89%
22:00 +20°C° 0.1 mm 1 mps 716 mmHg 90%
23:00 +20°C° 0 mm 1 mps 716 mmHg 89%

Tomorrow, 12 August, Wednesday

Time Temperature Precipitation Wind Pressure Humidity
00:00 +20°C° 0 mm 1 mps 716 mmHg 89%
01:00 +19°C° 0 mm 1 mps 716 mmHg 89%
02:00 +19°C° 0 mm 1 mps 715 mmHg 88%
03:00 +19°C° 0 mm 1 mps 715 mmHg 88%
04:00 +19°C° 0 mm 1 mps 715 mmHg 87%
05:00 +20°C° 0 mm 1 mps 716 mmHg 85%
06:00 +20°C° 0 mm 0 mps 716 mmHg 83%
07:00 +21°C° 0 mm 0 mps 716 mmHg 81%
08:00 +23°C° 0 mm 0 mps 717 mmHg 72%
09:00 +27°C° 0 mm 1 mps 717 mmHg 62%
10:00 +30°C° 0 mm 1 mps 717 mmHg 53%
11:00 +30°C° 0.1 mm 1 mps 717 mmHg 52%
12:00 +30°C° 0.1 mm 1 mps 717 mmHg 51%
13:00 +31°C° 0.1 mm 2 mps 717 mmHg 50%
14:00 +30°C° 0.5 mm 2 mps 717 mmHg 55%
15:00 +29°C° 0.5 mm 2 mps 717 mmHg 61%
16:00 +28°C° 0.5 mm 2 mps 717 mmHg 67%
17:00 +26°C° 0.9 mm 1 mps 717 mmHg 73%
18:00 +24°C° 0.9 mm 1 mps 716 mmHg 80%
19:00 +20°C° 0.9 mm 0 mps 716 mmHg 87%
20:00 +22°C° 0 mm 1 mps 716 mmHg 88%
21:00 +21°C° 0 mm 1 mps 716 mmHg 89%
22:00 +20°C° 0 mm 1 mps 716 mmHg 91%
23:00 +20°C° 0 mm 1 mps 716 mmHg 91%

Day after tomorrow, 13 August, Thursday

Time Temperature Precipitation Wind Pressure Humidity
00:00 +20°C° 0 mm 1 mps 716 mmHg 91%
01:00 +19°C° 0 mm 1 mps 716 mmHg 91%
02:00 +19°C° 0 mm 1 mps 716 mmHg 91%
03:00 +19°C° 0 mm 1 mps 716 mmHg 91%
04:00 +19°C° 0 mm 1 mps 716 mmHg 91%
05:00 +20°C° 0 mm 1 mps 716 mmHg 88%
06:00 +21°C° 0 mm 1 mps 716 mmHg 86%
07:00 +22°C° 0 mm 1 mps 717 mmHg 83%
08:00 +23°C° 0 mm 0 mps 717 mmHg 72%
09:00 +26°C° 0 mm 0 mps 717 mmHg 61%
10:00 +29°C° 0 mm 0 mps 718 mmHg 50%
11:00 +31°C° 0 mm 1 mps 717 mmHg 47%
12:00 +32°C° 0 mm 1 mps 717 mmHg 44%
13:00 +33°C° 0 mm 1 mps 717 mmHg 41%
14:00 +32°C° 0.1 mm 1 mps 717 mmHg 47%
15:00 +31°C° 0.1 mm 1 mps 716 mmHg 53%
16:00 +29°C° 0.1 mm 1 mps 716 mmHg 59%
17:00 +28°C° 0.2 mm 1 mps 715 mmHg 66%
18:00 +26°C° 0.2 mm 1 mps 715 mmHg 72%
19:00 +24°C° 0.2 mm 1 mps 714 mmHg 79%
20:00 +23°C° 0.1 mm 1 mps 714 mmHg 81%
21:00 +21°C° 0.1 mm 2 mps 714 mmHg 83%
22:00 +20°C° 0.1 mm 2 mps 714 mmHg 84%
23:00 +20°C° 0 mm 2 mps 714 mmHg 84%

14 August, Friday

Time Temperature Precipitation Wind Pressure Humidity
00:00 +20°C° 0 mm 2 mps 714 mmHg 83%
01:00 +20°C° 0 mm 2 mps 714 mmHg 82%
02:00 +20°C° 0 mm 2 mps 714 mmHg 80%
03:00 +20°C° 0 mm 2 mps 713 mmHg 78%
04:00 +20°C° 0 mm 2 mps 713 mmHg 76%
05:00 +22°C° 0 mm 1 mps 713 mmHg 74%
06:00 +23°C° 0 mm 1 mps 714 mmHg 72%
07:00 +24°C° 0 mm 1 mps 714 mmHg 70%
08:00 +26°C° 0 mm 1 mps 714 mmHg 60%
09:00 +29°C° 0 mm 1 mps 714 mmHg 50%
10:00 +32°C° 0 mm 1 mps 715 mmHg 40%
11:00 +32°C° 0 mm 1 mps 714 mmHg 38%
12:00 +33°C° 0 mm 1 mps 714 mmHg 37%
13:00 +33°C° 0 mm 1 mps 714 mmHg 36%
14:00 +32°C° 0 mm 1 mps 713 mmHg 42%
15:00 +31°C° 0 mm 1 mps 713 mmHg 48%
16:00 +30°C° 0 mm 1 mps 713 mmHg 55%
17:00 +27°C° 0.3 mm 1 mps 713 mmHg 65%
18:00 +25°C° 0.3 mm 1 mps 712 mmHg 75%
19:00 +21°C° 0.3 mm 0 mps 712 mmHg 85%
20:00 +20°C° 1 mm 0 mps 712 mmHg 88%
21:00 +19°C° 1 mm 0 mps 713 mmHg 91%
22:00 +18°C° 1 mm 0 mps 713 mmHg 93%
23:00 +18°C° 0.3 mm 0 mps 713 mmHg 93%

15 August, Saturday

Time Temperature Precipitation Wind Pressure Humidity
00:00 +17°C° 0.3 mm 0 mps 713 mmHg 93%
01:00 +17°C° 0.3 mm 0 mps 713 mmHg 93%
02:00 +17°C° 0.1 mm 0 mps 713 mmHg 94%
03:00 +17°C° 0.1 mm 0 mps 712 mmHg 94%
04:00 +16°C° 0.1 mm 0 mps 712 mmHg 95%
05:00 +19°C° 0.2 mm 1 mps 713 mmHg 95%
06:00 +20°C° 0.2 mm 1 mps 713 mmHg 95%
07:00 +21°C° 0.2 mm 1 mps 713 mmHg 95%
08:00 +21°C° 0.3 mm 1 mps 713 mmHg 92%
09:00 +22°C° 0.3 mm 1 mps 713 mmHg 88%
10:00 +23°C° 0.3 mm 1 mps 714 mmHg 85%
11:00 +24°C° 0.4 mm 1 mps 714 mmHg 79%
12:00 +26°C° 0.4 mm 1 mps 714 mmHg 73%
13:00 +27°C° 0.4 mm 1 mps 713 mmHg 67%
14:00 +26°C° 0.8 mm 1 mps 713 mmHg 70%
15:00 +26°C° 0.8 mm 1 mps 713 mmHg 73%
16:00 +26°C° 0.8 mm 1 mps 713 mmHg 76%
17:00 +24°C° 0.8 mm 1 mps 713 mmHg 81%
18:00 +22°C° 0.8 mm 1 mps 712 mmHg 87%
19:00 +21°C° 0.8 mm 1 mps 712 mmHg 93%
20:00 +20°C° 0.3 mm 1 mps 712 mmHg 94%
21:00 +18°C° 0.3 mm 0 mps 713 mmHg 95%
22:00 +17°C° 0.3 mm 0 mps 713 mmHg 96%
23:00 +17°C° 0 mm 0 mps 713 mmHg 96%

16 August, Sunday

Time Temperature Precipitation Wind Pressure Humidity
00:00 +17°C° 0 mm 0 mps 713 mmHg 96%
01:00 +17°C° 0 mm 0 mps 713 mmHg 97%
02:00 +16°C° 0 mm 0 mps 713 mmHg 97%
03:00 +16°C° 0 mm 0 mps 713 mmHg 97%
04:00 +16°C° 0 mm 0 mps 713 mmHg 97%
05:00 +17°C° 0 mm 0 mps 713 mmHg 97%
06:00 +18°C° 0 mm 0 mps 713 mmHg 96%
07:00 +19°C° 0 mm 0 mps 714 mmHg 96%
08:00 +22°C° 0.1 mm 1 mps 714 mmHg 88%
09:00 +23°C° 0.1 mm 1 mps 714 mmHg 81%
10:00 +25°C° 0.1 mm 1 mps 715 mmHg 74%
11:00 +25°C° 0.1 mm 2 mps 715 mmHg 70%
12:00 +26°C° 0.1 mm 2 mps 715 mmHg 66%
13:00 +27°C° 0.1 mm 2 mps 715 mmHg 62%
14:00 +26°C° 0.3 mm 2 mps 715 mmHg 64%
15:00 +26°C° 0.3 mm 2 mps 714 mmHg 66%
16:00 +26°C° 0.3 mm 2 mps 714 mmHg 67%
17:00 +24°C° 0 mm 2 mps 714 mmHg 73%
18:00 +23°C° 0 mm 1 mps 714 mmHg 79%
19:00 +21°C° 0 mm 1 mps 714 mmHg 85%
20:00 +20°C° 0 mm 1 mps 714 mmHg 87%
21:00 +19°C° 0 mm 1 mps 714 mmHg 89%
22:00 +17°C° 0 mm 0 mps 714 mmHg 91%
23:00 +16°C° 0 mm 0 mps 714 mmHg 92%
Show more